Zurück zum Katalog

STARLINK-35625

AktivKommunikationVLEO
NORAD 66140·PAYLOAD·🇺🇸 United States

Gestartet Oct 22, 2025 von Vandenberg Space Force Base

Loading…

Nächste Überflüge (nächste 24 Stunden)

TLE

AktuellSource: CelesTrak SupGP

Epoche: Sep 14, 2026, 20:54 UTC

1 66140C 25237AC  26257.87131944  .00045888  00000+0  13558-2 0  2578
2 66140  53.1570 237.8183 0001259  94.3739  77.0926 15.34367130    19

Verfolge STARLINK-35625 in Echtzeit mit AllMySat

Download on the App Store